Find Starlink 31411

NORAD ID: 59182 Int'l Des: 2024-045 Owner: SPXS Country: US Constellation: starlink operational
LEOCIRCULAR

現在のビュー

3D地球を読み込み中...

About Starlink 31411

Starlink 31411 (NORAD 59182) is a starlink constellation satellite (v2 mini) launched Mar 11, 2024 by SPXS of US. It operates in LEO, CIRCULAR orbit with a mass of 730.00 kg.

次回通過

Passes for default location (London). Set your location on the main map for personalized predictions.

高度履歴

Loading altitude history...

軌道要素

1 59182U 24045E 26237.96812500 .00001042 00000-0 47362-4 0 9994
2 59182 43.0016 216.2615 0000715 280.2162 79.8609 15.27576668139058
Epoch: Aug 25, 2026 • Age: 19 hours

現在のステータス

高度 482.3 km
遠地点 / 近地点 N/A
速度 7.63 km/s
衛星直下点 17.74°N, 15.98°W
打ち上げ日 Mar 11, 2024
運用期間 2.4 years
タイプ internet

技術仕様

分類 Payload
質量 730.00 kg
乾燥質量 700.00 kg
総質量 730.00 kg
長さ 0.30 m
直径 4.10 m
スパン 29.00 m
形状 Box + pan
製造者 SPXS
バスタイプ Starlink V2M
フェーズステータス In Orbit
所有者/国 SPXS/US

Most Searched